INTEGRAL

Last updated on Mon Mar 03 2025 00:03:26 GMT+0000 (Coordinated Universal Time)

1 27540U 02048A 25061.01365912 .00000285 00000+0 00000+0 0 9996 2 27540 90.9361 8.9528 8608969 274.5012 5.0938 0.37579353 24853
UTC large
Height (km)
Speed (km/s)
/
Latitude / Longitude
Inclination (degrees)
Orbital Period (minutes)
Azimuth
Elevation
Range (km)
Doppler Factor

Next 0 passes for location: London (51.5072 / 0.1276)

Sorry there are no passes over London.
INTEGRAL